Home   Weather   Cambridge   Past weeks
Flag for Canada

Past Weather in Cambridge, Ontario, Canada — Yesterday and Last 2 Weeks

Now
43 °F

Mostly cloudy.


Feels Like: 37 °F
Forecast: 49 / 38 °F
Wind: 10 mph from West

Location: Waterloo Well

Current Time: Oct 14, 2019 at 6:56:48 am

Latest Report: Oct 14, 2019 at 6:00 am


Visibility: 9 mi

Pressure: 29.90 "Hg

Humidity: 76%

Dew Point: 36 °F

Location of CambridgeLocation

Past Weather in Cambridge — Graph

°F

Cambridge Temperature Yesterday

Maximum temperature yesterday: 61 °F (at 2:00 pm)
Minimum temperature yesterday: 28 °F (at 1:40 am)
Average temperature yesterday: 44 °F

High & Low Weather Summary for the Past Weeks

 TemperatureHumidityPressure
High84 °F (Oct 1, 1:00 pm)100% (Sep 30, 9:58 pm)30.45 "Hg (Sep 30, 9:58 pm)
Low28 °F (Oct 13, 1:40 am)39% (Oct 7, 4:00 pm)29.79 "Hg (Oct 13, 5:00 pm)
Average51 °F87%30.12 "Hg
* Reported Sep 29 5:00 am — Oct 14 5:00 am, Cambridge. Weather by CustomWeather, © 2019

Note: Actual official high and low records may vary slightly from our data, if they occured in-between our weather recording intervals... More about our weather records

Advertising

Cambridge Weather History for the Previous 24 Hours

Scroll right to see more
 ConditionsComfort  
Time TempWeatherWind HumidityBarometerVisibility
5:00 am
Mon, Oct 14
43 °FMostly cloudy.13 mph76%29.88 "Hg9 mi
4:00 am43 °FMostly cloudy.13 mph81%29.85 "Hg9 mi
3:00 am45 °FOvercast.9 mph76%29.85 "Hg9 mi
2:00 am45 °FMostly cloudy.8 mph76%29.86 "Hg9 mi
1:00 am45 °FOvercast.8 mph76%29.85 "Hg9 mi
12:00 am45 °FOvercast.8 mph76%29.85 "Hg9 mi
11:00 pm
Sun, Oct 13
45 °FOvercast.5 mph76%29.85 "Hg9 mi
10:00 pm46 °FOvercast.18 mph76%29.88 "Hg9 mi
9:00 pm54 °FClear.22 mph58%29.83 "Hg9 mi
8:00 pm52 °FPassing clouds.7 mph58%29.81 "Hg9 mi
7:00 pm55 °FPassing clouds.9 mph51%29.80 "Hg9 mi
6:00 pm57 °FPassing clouds.17 mph44%29.80 "Hg9 mi
5:00 pm59 °FSunny.20 mph42%29.79 "Hg9 mi
4:00 pm61 °FSunny.23 mph39%29.80 "Hg9 mi
3:00 pm61 °FSunny.24 mph39%29.80 "Hg9 mi
2:00 pm61 °FSunny.20 mph48%29.84 "Hg9 mi
1:00 pm59 °FSunny.14 mph59%29.87 "Hg9 mi
12:00 pm57 °FSunny.18 mph63%29.90 "Hg9 mi
11:27 am55 °FScattered clouds.20 mph67%29.92 "Hg9 mi
11:00 am54 °FPartly sunny.20 mph77%29.92 "Hg9 mi
10:58 am54 °FPartly sunny.21 mph77%29.92 "Hg9 mi
10:00 am50 °FSunny.16 mph82%29.94 "Hg9 mi
9:00 am43 °FSunny.6 mph87%29.96 "Hg9 mi
8:26 am36 °FSunny.6 mph100%29.96 "Hg9 mi
8:16 am36 °FLight rain. Sunny.5 mph93%29.97 "Hg8 mi
8:00 am34 °FSunny.3 mph100%29.98 "Hg9 mi
7:00 am32 °FClear.3 mph100%29.98 "Hg9 mi
6:00 am34 °FClear.5 mph93%29.98 "Hg9 mi
Weather by CustomWeather, © 2019

See weather overview